Location: Halinen
(60.4681°N, 22.3225°E)
Time: 00:43:10
(UTC+00:00)

Daily predictions for brighter satellites

Satellite Brightness Start Highest point End
(mag) Time Altitude Azimuth Time Altitude Azimuth Time Altitude Azimuth
ATLAS CENTAUR R/B 2.7 00:03:26 10° WSW 00:05:13 18° SSW 00:07:55 10° SSE
Cosmos 2278 Rocket 4.2 00:00:35 10° WNW 00:05:35 30° N 00:10:36 10° NE
STARLINK-1225 4.5 00:04:40 10° WSW 00:08:18 29° S 00:11:55 10° ESE
Cosmos 2058 Rocket 4.0 00:05:05 10° NNW 00:09:05 34° W 00:13:05 10° SSW
Meteor 1-29 3.4 00:06:21 10° N 00:09:41 51° WNW 00:12:59 10° SW
Lacrosse 4 Rocket 1.7 00:06:32 10° NW 00:11:00 79° NE 00:15:19 10° SE
